Hourly Weather Roundup
Issued by NWS Central Illinois

Home | Current Version | Previous Version | Text Only | Print | Product List | Glossary On
Versions: 1 2 3 4 5 6 7 8 9 10 11 12 13 14 15 16 17 18 19 20 21 22 23 24 25 26 27 28 29 30 31 32 33 34 35 36 37 38 39 40 41 42 43 44 45 46 47 48 49 50
000
NZUS43 KILX 220610
HWRILX

AREA WEATHER ROUNDUP
NATIONAL WEATHER SERVICE, LINCOLN IL
100 AM CDT MON SEP 22 2014


CITY           SKY/WX    TMP DP  RH WIND       PRES   REMARKS
BLOOMINGTON    CLEAR     53  50  90 N8        30.17R
6HR MIN TEMP:  53; 6HR MAX TEMP:  62;

CHAMPAIGN      CLEAR     50  48  93 NW3       30.15R
6HR MIN TEMP:  50; 6HR MAX TEMP:  61;

DECATUR        CLEAR     55  51  86 N12       30.16R
6HR MIN TEMP:  55; 6HR MAX TEMP:  64;

FLORA          CLEAR     55  50  83 NW7       30.14R
6HR MIN TEMP:  55; 6HR MAX TEMP:  67;

GALESBURG      CLEAR     49  48  96 NW6       30.19S
JACKSONVILLE   CLEAR     55  51  89 NW6       30.19S
6HR MIN TEMP:  53; 6HR MAX TEMP:  65; 6HR PCP:  0.01;

LACON          CLEAR     49  47  92 CALM      30.16S
6HR MIN TEMP:  49; 6HR MAX TEMP:  61;

LAWRENCEVILLE  CLEAR     54  51  90 NW7       30.13R
6HR MIN TEMP:  54; 6HR MAX TEMP:  66;

LITCHFIELD     CLEAR     50  49  95 NW3       30.17R
$$


CITY           SKY/WX    TMP DP  RH WIND       PRES   REMARKS
LINCOLN        CLEAR     53  50  91 CALM      30.15S
6HR MIN TEMP:  53; 6HR MAX TEMP:  63;

MACOMB         CLEAR     50  48  93 NW6       30.21S
MATTOON        CLEAR     51  48  89 N3        30.15R
6HR MIN TEMP:  51; 6HR MAX TEMP:  63;

MT CARMEL AP   CLEAR     55  52  88 NW7       30.12S
OLNEY-NOBLE AP CLEAR     54  50  87 CALM      30.14R
PARIS          CLEAR     51  50  97 CALM      30.14R
6HR MIN TEMP:  51; 6HR MAX TEMP:  62;

PEORIA         CLEAR     54  49  83 N3        30.17R
6HR MIN TEMP:  54; 6HR MAX TEMP:  62;

PONTIAC        CLEAR     48  48 100 CALM      30.16R
RANTOUL        CLEAR     55  50  84 N5        30.16R
6HR MIN TEMP:  54; 6HR MAX TEMP:  64;

ROBINSON       CLEAR     56  53  89 NW7       30.14R
6HR MIN TEMP:  56; 6HR MAX TEMP:  65;

SPRINGFIELD    CLEAR     54  51  90 NW6       30.17R
6HR MIN TEMP:  54; 6HR MAX TEMP:  65;

TAYLORVILLE    FAIR      52  50  93 NW3       30.16R
$$

...REGIONAL REPORTS...


CITY           SKY/WX    TMP DP  RH WIND       PRES   REMARKS
CHICAGO O`HARE PTCLDY    51  43  74 N8        30.14S
KANKAKEE       CLEAR     50  46  86 CALM      30.15S
MOLINE         CLEAR     54  46  74 N3        30.19R
MOUNT VERNON   CLEAR     55  48  76 N3        30.15R
PITTSFIELD     CLEAR     56  50  80 NW7       30.20S
QUINCY         CLEAR     53  49  86 NW7       30.20R
ROCKFORD       CLEAR     48  43  82 N7        30.20R
$$


CITY           SKY/WX    TMP DP  RH WIND       PRES   REMARKS
BURLINGTON     CLEAR     52  49  89 NW5       30.20R
CEDAR RAPIDS   CLEAR     48  46  93 N5        30.20S
DES MOINES     CLEAR     56  48  74 N6        30.25R
KIRKSVILLE     CLEAR     52  49  89 NW5       30.24S
OTTUMWA        CLEAR     50  46  86 NW6       30.23S
ST LOUIS       CLEAR     57  50  77 NW3       30.19R
$$


CITY           SKY/WX    TMP DP  RH WIND       PRES   REMARKS
TERRE HAUTE    CLEAR     54  50  86 N3        30.13R
EVANSVILLE     CLEAR     58  50  75 N5        30.12R
INDIANAPOLIS   PTCLDY    55  48  77 N9        30.10S
LAFAYETTE      PTCLDY    50  49  96 CALM      30.13R
MADISON        CLEAR     46  41  82 NW3       30.20R
MILWAUKEE      CLEAR     48  41  76 NW7       30.18R
$$




USA.gov is the U.S. government's official web portal to all federal, state and local government web resources and services.